"Period start","avg(HW err(1)/warn(2) (#))","avg(Visibility (m))","avg(Weather code (#))","avg(Precip intensity (mm/h))","min(HW err(1)/warn(2) (#))","max(HW err(1)/warn(2) (#))","std(HW err(1)/warn(2) (#))","med(HW err(1)/warn(2) (#))","min(Visibility (m))","max(Visibility (m))","std(Visibility (m))","med(Visibility (m))","min(Weather code (#))","max(Weather code (#))","std(Weather code (#))","med(Weather code (#))","min(Precip intensity (mm/h))","max(Precip intensity (mm/h))","std(Precip intensity (mm/h))","med(Precip intensity (mm/h))"
2016-09-04 00:00:00,2,37845,0,0.00,2,2,0,2,27682,47076,6494,36846,0,0,0,0,0.00,0.00,0.00,0.00
2016-09-04 00:10:00,2,33722,0,0.00,2,2,0,2,26312,48676,7006,31626,0,0,0,0,0.00,0.00,0.00,0.00
2016-09-04 00:20:00,2,40650,0,0.00,2,2,0,2,23950,50000,8738,41975,0,0,0,0,0.00,0.00,0.00,0.00
2016-09-04 00:30:00,2,44540,0,0.00,2,2,0,2,34913,50000,5244,45131,0,0,0,0,0.00,0.00,0.00,0.00
2016-09-04 00:40:00,2,35541,0,0.00,2,2,0,2,23742,50000,9428,33692,0,0,0,0,0.00,0.00,0.00,0.00
2016-09-04 00:50:00,2,37415,0,0.00,2,2,0,2,24829,50000,8899,35178,0,0,0,0,0.00,0.00,0.00,0.00
2016-09-04 01:00:00,2,28568,0,0.00,2,2,0,2,15235,50000,8797,27034,0,0,0,0,0.00,0.00,0.00,0.00
2016-09-04 01:10:00,2,33060,0,0.00,2,2,0,2,15396,50000,10264,34967,0,0,0,0,0.00,0.00,0.00,0.00
2016-09-04 01:20:00,2,44687,0,0.00,2,2,0,2,36682,50000,5093,44788,0,0,0,0,0.00,0.00,0.00,0.00
2016-09-04 01:30:00,2,42425,0,0.00,2,2,0,2,29481,50000,8305,46096,0,0,0,0,0.00,0.00,0.00,0.00
2016-09-04 01:40:00,2,38036,0,0.00,2,2,0,2,23735,50000,7876,38398,0,0,0,0,0.00,0.00,0.00,0.00
2016-09-04 01:50:00,2,35416,0,0.00,2,2,0,2,27313,42869,5040,36902,0,0,0,0,0.00,0.00,0.00,0.00
2016-09-04 02:00:00,2,39594,0,0.00,2,2,0,2,31753,50000,6066,39663,0,0,0,0,0.00,0.00,0.00,0.00
2016-09-04 02:10:00,2,39286,0,0.00,2,2,0,2,29538,46119,6397,40938,0,0,0,0,0.00,0.00,0.00,0.00
2016-09-04 02:20:00,2,36525,0,0.00,2,2,0,2,17574,50000,10611,39007,0,0,0,0,0.00,0.00,0.00,0.00
2016-09-04 02:30:00,2,39006,0,0.00,2,2,0,2,28629,49053,6207,38467,0,0,0,0,0.00,0.00,0.00,0.00
2016-09-04 02:40:00,2,42249,0,0.00,2,2,0,2,35626,48645,4426,40924,0,0,0,0,0.00,0.00,0.00,0.00
2016-09-04 02:50:00,2,40733,0,0.00,2,2,0,2,26541,50000,7230,43076,0,0,0,0,0.00,0.00,0.00,0.00
2016-09-04 03:00:00,2,47462,0,0.00,2,2,0,2,41389,50000,3223,50000,0,0,0,0,0.00,0.00,0.00,0.00
2016-09-04 03:10:00,2,44206,0,0.00,2,2,0,2,31856,50000,6240,46296,0,0,0,0,0.00,0.00,0.00,0.00
2016-09-04 03:20:00,2,46313,0,0.00,2,2,0,2,34171,50000,5402,49846,0,0,0,0,0.00,0.00,0.00,0.00
2016-09-04 03:30:00,2,40074,0,0.00,2,2,0,2,31269,50000,6353,38196,0,0,0,0,0.00,0.00,0.00,0.00
2016-09-04 03:40:00,2,37210,0,0.00,2,2,0,2,32075,50000,6396,34192,0,0,0,0,0.00,0.00,0.00,0.00
2016-09-04 03:50:00,2,40689,0,0.00,2,2,0,2,30109,50000,6983,41132,0,0,0,0,0.00,0.00,0.00,0.00
2016-09-04 04:00:00,2,40045,0,0.00,0,2,1,2,23902,50000,8530,39482,0,0,0,0,0.00,0.00,0.00,0.00
2016-09-04 04:10:00,1,43422,0,0.00,0,2,1,2,31172,50000,6008,45564,0,0,0,0,0.00,0.00,0.00,0.00
2016-09-04 04:20:00,0,42964,0,0.00,0,0,0,0,32779,50000,6289,44480,0,0,0,0,0.00,0.00,0.00,0.00
2016-09-04 04:30:00,0,46229,0,0.00,0,0,0,0,36971,50000,4755,48332,0,0,0,0,0.00,0.00,0.00,0.00
2016-09-04 04:40:00,0,44542,0,0.00,0,0,0,0,38118,50000,3917,44639,0,0,0,0,0.00,0.00,0.00,0.00
2016-09-04 04:50:00,0,48564,0,0.00,0,0,0,0,43086,50000,2198,50000,0,0,0,0,0.00,0.00,0.00,0.00
2016-09-04 05:00:00,0,47725,0,0.00,0,0,0,0,41587,50000,3335,49860,0,0,0,0,0.00,0.00,0.00,0.00
2016-09-04 05:10:00,0,47554,0,0.00,0,0,0,0,39981,50000,3080,48377,0,0,0,0,0.00,0.00,0.00,0.00
2016-09-04 05:20:00,0,48732,0,0.00,0,0,0,0,43823,50000,2347,50000,0,0,0,0,0.00,0.00,0.00,0.00
2016-09-04 05:30:00,0,49733,0,0.00,0,0,0,0,47493,50000,748,50000,0,0,0,0,0.00,0.00,0.00,0.00
2016-09-04 05:40:00,0,45336,0,0.00,0,0,0,0,41273,50000,2970,44822,0,0,0,0,0.00,0.00,0.00,0.00
2016-09-04 05:50:00,0,49847,0,0.00,0,0,0,0,48748,50000,376,50000,0,0,0,0,0.00,0.00,0.00,0.00
2016-09-04 06:00:00,0,48423,0,0.00,0,0,0,0,43277,50000,2032,49054,0,0,0,0,0.00,0.00,0.00,0.00
2016-09-04 06:10:00,0,49055,0,0.00,0,0,0,0,45991,50000,1426,50000,0,0,0,0,0.00,0.00,0.00,0.00
2016-09-04 06:20:00,0,49194,0,0.00,0,0,0,0,45579,50000,1338,49958,0,0,0,0,0.00,0.00,0.00,0.00
2016-09-04 06:30:00,0,47287,0,0.00,0,0,0,0,36199,50000,4506,49952,0,0,0,0,0.00,0.00,0.00,0.00
2016-09-04 06:40:00,0,46025,0,0.00,0,0,0,0,37707,50000,5044,49514,0,0,0,0,0.00,0.00,0.00,0.00
2016-09-04 06:50:00,0,47266,0,0.00,0,0,0,0,43265,50000,2899,48777,0,0,0,0,0.00,0.00,0.00,0.00
2016-09-04 07:00:00,0,41136,0,0.00,0,0,0,0,34278,50000,4893,41384,0,0,0,0,0.00,0.00,0.00,0.00
2016-09-04 07:10:00,0,49366,0,0.00,0,0,0,0,47581,50000,942,50000,0,0,0,0,0.00,0.00,0.00,0.00
2016-09-04 07:20:00,0,48941,0,0.00,0,0,0,0,42551,50000,2229,50000,0,0,0,0,0.00,0.00,0.00,0.00
2016-09-04 07:30:00,0,46484,0,0.00,0,0,0,0,35043,50000,4668,48654,0,0,0,0,0.00,0.00,0.00,0.00
2016-09-04 07:40:00,0,48421,0,0.00,0,0,0,0,41911,50000,2320,49046,0,0,0,0,0.00,0.00,0.00,0.00
2016-09-04 07:50:00,0,46949,0,0.00,0,0,0,0,39616,50000,3480,48750,0,0,0,0,0.00,0.00,0.00,0.00
2016-09-04 08:00:00,0,46849,0,0.00,0,0,0,0,39803,50000,3623,48240,0,0,0,0,0.00,0.00,0.00,0.00
2016-09-04 08:10:00,0,44833,0,0.00,0,0,0,0,33346,50000,5350,46552,0,0,0,0,0.00,0.00,0.00,0.00
2016-09-04 08:20:00,0,49238,0,0.00,0,0,0,0,45209,50000,1497,50000,0,0,0,0,0.00,0.00,0.00,0.00
2016-09-04 08:30:00,0,46154,0,0.00,0,0,0,0,34156,50000,5417,49218,0,0,0,0,0.00,0.00,0.00,0.00
2016-09-04 08:40:00,0,48748,0,0.00,0,0,0,0,44404,50000,2014,50000,0,0,0,0,0.00,0.00,0.00,0.00
2016-09-04 08:50:00,0,49694,0,0.00,0,0,0,0,47190,50000,838,50000,0,0,0,0,0.00,0.00,0.00,0.00
2016-09-04 09:00:00,0,49963,0,0.00,0,0,0,0,49634,50000,110,50000,0,0,0,0,0.00,0.00,0.00,0.00
2016-09-04 09:10:00,0,49854,0,0.00,0,0,0,0,48542,50000,437,50000,0,0,0,0,0.00,0.00,0.00,0.00
2016-09-04 09:20:00,0,48956,0,0.00,0,0,0,0,45642,50000,1705,50000,0,0,0,0,0.00,0.00,0.00,0.00
2016-09-04 09:30:00,0,49565,0,0.00,0,0,0,0,46282,50000,1110,50000,0,0,0,0,0.00,0.00,0.00,0.00
2016-09-04 09:40:00,0,49937,0,0.00,0,0,0,0,49370,50000,189,50000,0,0,0,0,0.00,0.00,0.00,0.00
2016-09-04 09:50:00,0,49976,0,0.00,0,0,0,0,49756,50000,73,50000,0,0,0,0,0.00,0.00,0.00,0.00
2016-09-04 10:00:00,0,49866,0,0.00,0,0,0,0,48664,50000,401,50000,0,0,0,0,0.00,0.00,0.00,0.00
2016-09-04 10:10:00,0,49787,0,0.00,0,0,0,0,48360,50000,497,50000,0,0,0,0,0.00,0.00,0.00,0.00
2016-09-04 10:20:00,0,50000,0,0.00,0,0,0,0,50000,50000,0,50000,0,0,0,0,0.00,0.00,0.00,0.00
2016-09-04 10:30:00,0,49951,0,0.00,0,0,0,0,49512,50000,146,50000,0,0,0,0,0.00,0.00,0.00,0.00
2016-09-04 10:40:00,0,49951,0,0.00,0,0,0,0,49513,50000,146,50000,0,0,0,0,0.00,0.00,0.00,0.00
2016-09-04 10:50:00,0,50000,0,0.00,0,0,0,0,50000,50000,0,50000,0,0,0,0,0.00,0.00,0.00,0.00
2016-09-04 11:00:00,0,50000,0,0.00,0,0,0,0,50000,50000,0,50000,0,0,0,0,0.00,0.00,0.00,0.00
2016-09-04 11:10:00,0,50000,0,0.00,0,0,0,0,50000,50000,0,50000,0,0,0,0,0.00,0.00,0.00,0.00
2016-09-04 11:20:00,0,50000,0,0.00,0,0,0,0,50000,50000,0,50000,0,0,0,0,0.00,0.00,0.00,0.00
2016-09-04 11:30:00,0,50000,0,0.00,0,0,0,0,50000,50000,0,50000,0,0,0,0,0.00,0.00,0.00,0.00
2016-09-04 11:40:00,0,50000,0,0.00,0,0,0,0,50000,50000,0,50000,0,0,0,0,0.00,0.00,0.00,0.00
2016-09-04 11:50:00,0,49944,0,0.00,0,0,0,0,49706,50000,113,50000,0,0,0,0,0.00,0.00,0.00,0.00
2016-09-04 12:00:00,0,50000,0,0.00,0,0,0,0,50000,50000,0,50000,0,0,0,0,0.00,0.00,0.00,0.00
2016-09-04 12:10:00,0,50000,0,0.00,0,0,0,0,50000,50000,0,50000,0,0,0,0,0.00,0.00,0.00,0.00
2016-09-04 12:20:00,0,50000,0,0.00,0,0,0,0,50000,50000,0,50000,0,0,0,0,0.00,0.00,0.00,0.00
2016-09-04 12:30:00,0,50000,0,0.00,0,0,0,0,50000,50000,0,50000,0,0,0,0,0.00,0.00,0.00,0.00
2016-09-04 12:40:00,0,50000,0,0.00,0,0,0,0,50000,50000,0,50000,0,0,0,0,0.00,0.00,0.00,0.00
2016-09-04 12:50:00,0,49928,0,0.00,0,0,0,0,49277,50000,217,50000,0,0,0,0,0.00,0.00,0.00,0.00
2016-09-04 13:00:00,0,34160,0,0.00,0,0,0,0,3562,50000,19207,47208,0,0,0,0,0.00,0.00,0.00,0.00
2016-09-04 13:10:00,0,46721,0,0.00,0,0,0,0,28296,50000,6647,50000,0,0,0,0,0.00,0.00,0.00,0.00
2016-09-04 13:20:00,0,50000,0,0.00,0,0,0,0,49999,50000,0,50000,0,0,0,0,0.00,0.00,0.00,0.00
2016-09-04 13:30:00,0,50000,0,0.00,0,0,0,0,50000,50000,0,50000,0,0,0,0,0.00,0.00,0.00,0.00
2016-09-04 13:40:00,0,50000,0,0.00,0,0,0,0,50000,50000,0,50000,0,0,0,0,0.00,0.00,0.00,0.00
2016-09-04 13:50:00,0,50000,0,0.00,0,0,0,0,50000,50000,0,50000,0,0,0,0,0.00,0.00,0.00,0.00
2016-09-04 14:00:00,0,49928,0,0.00,0,0,0,0,49283,50000,215,50000,0,0,0,0,0.00,0.00,0.00,0.00
2016-09-04 14:10:00,0,49940,0,0.00,0,0,0,0,49400,50000,180,50000,0,0,0,0,0.00,0.00,0.00,0.00
2016-09-04 14:20:00,0,49935,0,0.00,0,0,0,0,49646,50000,131,50000,0,0,0,0,0.00,0.00,0.00,0.00
2016-09-04 14:30:00,0,49543,0,0.00,0,0,0,0,47599,50000,876,50000,0,0,0,0,0.00,0.00,0.00,0.00
2016-09-04 14:40:00,0,49931,0,0.00,0,0,0,0,49311,50000,207,50000,0,0,0,0,0.00,0.00,0.00,0.00
2016-09-04 14:50:00,0,49830,0,0.00,0,0,0,0,48304,50000,509,50000,0,0,0,0,0.00,0.00,0.00,0.00
2016-09-04 15:00:00,0,50000,0,0.00,0,0,0,0,50000,50000,0,50000,0,0,0,0,0.00,0.00,0.00,0.00
2016-09-04 15:10:00,0,49877,0,0.00,0,0,0,0,48766,50000,370,50000,0,0,0,0,0.00,0.00,0.00,0.00
2016-09-04 15:20:00,0,47509,0,0.00,0,0,0,0,31784,50000,5503,49944,0,0,0,0,0.00,0.00,0.00,0.00
2016-09-04 15:30:00,0,37146,0,0.00,0,0,0,0,28571,46303,4961,37896,0,0,0,0,0.00,0.00,0.00,0.00
2016-09-04 15:40:00,0,44945,0,0.00,0,0,0,0,27924,50000,8124,49332,0,0,0,0,0.00,0.00,0.00,0.00
2016-09-04 15:50:00,0,23393,0,0.00,0,0,0,0,20383,28648,2436,23606,0,0,0,0,0.00,0.00,0.00,0.00
2016-09-04 16:00:00,0,13789,0,0.00,0,0,0,0,8538,23573,5402,11672,0,0,0,0,0.00,0.00,0.00,0.00
2016-09-04 16:10:00,0,3454,12,0.00,0,0,0,0,306,8674,3338,1872,0,34,12,10,0.00,0.00,0.00,0.00
2016-09-04 16:20:00,0,1962,34,0.00,0,0,0,0,287,8422,2954,325,34,34,0,34,0.00,0.00,0.00,0.00
2016-09-04 16:30:00,0,304,34,0.00,0,2,1,0,286,325,12,301,34,34,0,34,0.00,0.00,0.00,0.00
2016-09-04 16:40:00,2,281,34,0.00,2,2,0,2,266,299,11,278,34,34,0,34,0.00,0.00,0.00,0.00
2016-09-04 16:50:00,2,262,34,0.00,2,2,0,2,246,282,9,262,34,34,0,34,0.00,0.00,0.00,0.00
2016-09-04 17:00:00,2,353,34,0.00,2,2,0,2,280,462,56,356,34,34,0,34,0.00,0.00,0.00,0.00
2016-09-04 17:10:00,2,498,34,0.00,2,2,0,2,401,802,111,456,33,34,0,34,0.00,0.00,0.00,0.00
2016-09-04 17:20:00,2,660,32,0.00,2,2,0,2,552,854,87,658,32,33,0,32,0.00,0.00,0.00,0.00
2016-09-04 17:30:00,2,427,32,0.00,2,2,0,2,385,499,40,424,32,32,0,32,0.00,0.00,0.00,0.00
2016-09-04 17:40:00,2,669,32,0.00,0,2,1,2,443,1171,237,586,32,32,0,32,0.00,0.00,0.00,0.00
2016-09-04 17:50:00,2,1399,31,0.00,2,2,0,2,836,2750,526,1268,30,32,1,32,0.00,0.00,0.00,0.00
2016-09-04 18:00:00,2,1577,20,0.00,2,2,0,2,718,4935,1243,998,20,20,0,20,0.00,0.00,0.00,0.00
2016-09-04 18:10:00,2,2717,20,0.00,2,2,0,2,610,8296,2202,2032,20,20,0,20,0.00,0.00,0.00,0.00
2016-09-04 18:20:00,2,6189,20,0.00,2,2,0,2,1118,18044,5588,4330,20,20,0,20,0.00,0.00,0.00,0.00
2016-09-04 18:30:00,2,1308,22,0.00,2,2,0,2,526,4382,1118,955,20,32,4,20,0.00,0.00,0.00,0.00
2016-09-04 18:40:00,2,1849,29,0.00,2,2,0,2,695,4923,1164,1516,20,32,5,31,0.00,0.00,0.00,0.00
2016-09-04 18:50:00,2,1915,20,0.00,2,2,0,2,597,7477,1958,1264,20,20,0,20,0.00,0.00,0.00,0.00
2016-09-04 19:00:00,2,7503,20,0.00,2,2,0,2,1385,25100,6683,4070,20,20,0,20,0.00,0.00,0.00,0.00
2016-09-04 19:10:00,2,2767,20,0.00,2,2,0,2,1132,9877,2430,1978,20,20,0,20,0.00,0.00,0.00,0.00
2016-09-04 19:20:00,2,2078,20,0.00,2,2,0,2,688,4246,1117,1939,20,20,0,20,0.00,0.00,0.00,0.00
2016-09-04 19:30:00,2,1292,20,0.00,2,2,0,2,830,2616,500,1122,20,20,0,20,0.00,0.00,0.00,0.00
2016-09-04 19:40:00,2,1912,18,0.00,2,2,0,2,1230,3067,600,1659,10,20,4,20,0.00,0.00,0.00,0.00
2016-09-04 19:50:00,2,4243,10,0.00,2,2,0,2,1591,7475,1777,4290,10,10,0,10,0.00,0.00,0.00,0.00
2016-09-04 20:00:00,2,2955,10,0.00,2,2,0,2,963,9185,2548,1651,10,10,0,10,0.00,0.00,0.00,0.00
2016-09-04 20:10:00,2,1017,49,0.40,0,2,1,2,877,1149,97,990,10,61,14,51,0.00,1.15,0.40,0.33
2016-09-04 20:20:00,0,832,52,2.51,0,0,0,0,653,1052,129,839,51,52,0,52,0.80,5.70,1.51,2.17
2016-09-04 20:30:00,0,1166,52,1.86,0,0,0,0,771,1563,270,1246,52,52,0,52,0.40,3.45,1.03,1.58
2016-09-04 20:40:00,2,11783,24,0.12,2,2,0,2,3424,28248,7888,9398,20,52,10,20,0.00,1.20,0.36,0.00
2016-09-04 20:50:00,2,1349,20,0.00,2,2,0,2,898,1837,319,1321,20,20,0,20,0.00,0.00,0.00,0.00
2016-09-04 21:00:00,2,1773,20,0.00,0,2,1,2,1136,2786,598,1632,20,20,0,20,0.00,0.00,0.00,0.00
2016-09-04 21:10:00,2,1705,20,0.00,2,2,0,2,1101,2405,428,1741,20,20,0,20,0.00,0.00,0.00,0.00
2016-09-04 21:20:00,2,2038,20,0.00,2,2,0,2,1251,3863,846,1738,20,20,0,20,0.00,0.00,0.00,0.00
2016-09-04 21:30:00,2,4387,20,0.00,2,2,0,2,1530,11311,3321,2624,20,20,0,20,0.00,0.00,0.00,0.00
2016-09-04 21:40:00,2,8833,12,0.00,2,2,0,2,991,29027,10314,2484,10,20,4,10,0.00,0.00,0.00,0.00
2016-09-04 21:50:00,2,18180,9,0.00,2,2,0,2,2267,42374,15660,13311,0,10,3,10,0.00,0.00,0.00,0.00
2016-09-04 22:00:00,2,10848,10,0.00,2,2,0,2,851,27957,8834,8858,10,10,0,10,0.00,0.00,0.00,0.00
2016-09-04 22:10:00,2,1408,10,0.00,2,2,0,2,852,2200,391,1361,10,10,0,10,0.00,0.00,0.00,0.00
2016-09-04 22:20:00,2,10851,10,0.00,2,2,0,2,2059,29962,7878,9472,10,10,0,10,0.00,0.00,0.00,0.00
2016-09-04 22:30:00,2,2438,29,0.62,2,2,0,2,954,6392,1758,1484,10,61,23,10,0.00,2.65,0.96,0.00
2016-09-04 22:40:00,2,1022,51,0.98,2,2,0,2,887,1084,60,1040,51,52,0,51,0.35,2.30,0.60,0.75
2016-09-04 22:50:00,2,2433,36,0.40,2,2,0,2,944,4125,1058,2032,20,52,16,36,0.00,2.45,0.72,0.00
2016-09-04 23:00:00,2,4799,20,0.00,2,2,0,2,1164,15708,4521,2625,20,20,0,20,0.00,0.00,0.00,0.00
2016-09-04 23:10:00,2,1553,20,0.00,2,2,0,2,986,2376,434,1454,20,20,0,20,0.00,0.00,0.00,0.00
2016-09-04 23:20:00,2,5373,20,0.00,2,2,0,2,923,24785,8179,1125,20,20,0,20,0.00,0.00,0.00,0.00
2016-09-04 23:30:00,2,27646,20,0.00,2,2,0,2,5152,48579,13728,24565,20,20,0,20,0.00,0.00,0.00,0.00
2016-09-04 23:40:00,2,3867,20,0.00,2,2,0,2,1484,6690,1835,3678,20,20,0,20,0.00,0.00,0.00,0.00
2016-09-04 23:50:00,2,1918,15,0.00,2,2,0,2,1405,2765,381,1874,10,20,5,15,0.00,0.00,0.00,0.00
